Location: Unspecified
(0.0000°N, 0.0000°E)
Time: 00:14:44
(UTC+00:00)

LEMUR 2 DEMBITZ - Pass Details

Date: 15 January 2026
Orbit: 483 x 493 km, 97.4° (Epoch: 10 February)

Event Time Altitude Azimuth Distance (km) Brightness Sun altitude
Rises 05:18:03 0° 162° (SSE) 2,583 ? -11.9°
Reaches altitude 10° 05:20:10 10° 158° (SSE) 1,699 ? -11.5°
Maximum altitude 05:23:45 56° 79° (E) 593 ? -10.6°
Drops below altitude 10° 05:27:20 10° 360° (N) 1,693 ? -9.8°
Sets 05:29:26 0° 356° (N) 2,573 ? -9.3°
